Starlink 31394

operational
NORAD ID: 59185 Int'l Des: 2024-045 Owner: SPXS Country: US Constellation: starlink
LEOCIRCULAR

About Starlink 31394

Description loading...

Live Position

Loading 3D Globe...

Upcoming Passes

Altitude History

Altitude vs Time

uPlot chart will show altitude changes over time

Two-Line Element Set

1 59185U 24045H 25312.66403737 .00000656 00000-0 33329-4 0 9993
2 59185 43.0041 45.5293 0001469 261.3940 98.6746 15.27609878 94775
Epoch: Nov 8, 2025 • Age: 43 hours

Current Status

Altitude 482.8 km
Velocity 7.63 km/s
Sub-Earth Point 19.40°N, 20.97°W
Launch Date Mar 11, 2024
Age 1.6 years
Type internet

Technical Details

Classification Payload
Mass 730.00 kg
Dry Mass 700.00 kg
Total Mass 730.00 kg
Length 0.30 m
Diameter 4.10 m
Span 29.00 m
Shape Box + pan
Manufacturer SPXS
Bus Type Starlink V2M
Phase Status In Orbit
Owner/State SPXS/US

Large Constellations

Loading constellations...